Location: Overspoor
(51.4747°N, 5.6641°E)
Time: 09:33:36
(UTC+02:00)

NANOSAT C BR1 - Pass Details

Date: 06 July 2022
Orbit: 584 x 599 km, 98.0° (Epoch: 07 August)

Event Time Altitude Azimuth Distance (km) Brightness Sun altitude
Rises 02:18:23 0° 34° (NNE) 2,854 ? -15.4°
Reaches altitude 10° 02:22:49 10° 78° (ENE) 1,946 ? -15.3°
Maximum altitude 02:23:22 10° 85° (E) 1,932 ? -15.3°
Drops below altitude 10° 02:23:54 10° 93° (E) 1,945 ? -15.3°
Enters shadow 02:27:05 - 128° (SE) 2,487 ? -15.2°
